Location: Unspecified
(0.0000°N, 0.0000°E)
Time: 04:53:54
(UTC+00:00)

Vanguard 1 - Pass Details

Date: 15 December 2023
Orbit: 653 x 3826 km, 34.3° (Epoch: 22 February)

Event Time Altitude Azimuth Distance (km) Brightness Sun altitude
Rises 20:19:38 0° 321° (NW) 6,624 14.4 -32.8°
Reaches altitude 10° 20:24:12 10° 329° (NNW) 5,984 14.0 -33.8°
Enters shadow 20:39:20 38° 16° (NNE) 4,827 13.1 -37.1°
Maximum altitude 20:42:58 40° 33° (NNE) 4,828 - -37.9°
Drops below altitude 10° 21:03:23 10° 96° (E) 6,575 - -42.2°
Sets 21:08:34 0° 103° (ESE) 7,315 - -43.3°
